This demonstration page uses our WeatherBlox Daily Observations layout. Learn more.

Hourly Observations for July 5, 2020

Temp ( °F °C ) Dew Point ( °F °C ) Humidity (%) Winds ( mph kmh ) Pressure ( in mb ) Visibility ( mi km ) Precip ( " mm )
12:15 am 00:15 Partly Cloudy 77 25 70 21 79 79 WSW 3 6 29.95 1014 10 16.0934 0 0
12:35 am 00:35 Mostly Cloudy 77 25 70 21 79 79 SW 5 7 29.95 1014 10 16.0934 0 0
12:55 am 00:55 Partly Cloudy 75 24 70 21 83 83 SW 3 6 29.95 1014 10 16.0934 0 0
1:15 am 01:15 Clear 75 24 70 21 83 83 Calm 29.96 1014 10 16.0934 0 0
1:35 am 01:35 Clear 73 23 68 20 83 83 Calm 29.96 1014 10 16.0934 0 0
1:55 am 01:55 Clear 73 23 68 20 83 83 SW 3 6 29.96 1014 10 16.0934 0 0
2:15 am 02:15 Partly Cloudy 73 23 70 21 89 89 Calm 29.96 1014 10 16.0934 0 0
2:35 am 02:35 Partly Cloudy 73 23 68 20 83 83 SSW 3 6 29.96 1014 10 16.0934 0 0
2:55 am 02:55 Clear 73 23 68 20 83 83 S 3 6 29.95 1014 10 16.0934 0 0
3:15 am 03:15 Clear 73 23 68 20 83 83 S 3 6 29.95 1014 10 16.0934 0 0
3:35 am 03:35 Clear 72 22 68 20 88 88 Calm 29.95 1014 10 16.0934 0 0
3:55 am 03:55 Clear 72 22 68 20 88 88 Calm 29.95 1014 10 16.0934 0 0
4:15 am 04:15 Clear 72 22 68 20 88 88 Calm 29.95 1014 10 16.0934 0 0
4:35 am 04:35 Clear 72 22 68 20 88 88 Calm 29.96 1015 10 16.0934 0 0
4:55 am 04:55 Clear 72 22 68 20 88 88 S 3 6 29.96 1015 7 11.26538 0 0
5:15 am 05:15 Clear 72 22 68 20 88 88 S 3 6 29.97 1015 7 11.26538 0 0
5:35 am 05:35 Clear 70 21 68 20 94 94 SSW 3 6 29.97 1015 7 11.26538 0 0
5:55 am 05:55 Sunny 70 21 68 20 94 94 S 5 7 29.97 1015 5 8.0467 0 0
6:15 am 06:15 Sunny 72 22 68 20 88 88 Calm 29.97 1015 5 8.0467 0 0
6:35 am 06:35 Sunny 72 22 68 20 88 88 S 3 6 29.98 1015 5 8.0467 0 0
6:55 am 06:55 Mostly Cloudy 72 22 70 21 94 94 Calm 29.99 1016 4 6.43736 0 0
7:15 am 07:15 Mostly Cloudy 72 22 70 21 94 94 S 3 6 29.99 1016 5 8.0467 0 0
7:35 am 07:35 Partly Cloudy 73 23 70 21 89 89 Calm 30 1016 5 8.0467 0 0
7:55 am 07:55 Sunny 73 23 72 22 94 94 Calm 30 1016 5 8.0467 0 0
8:15 am 08:15 Partly Cloudy 75 24 72 22 89 89 Calm 30 1016 5 8.0467 0 0
8:35 am 08:35 Partly Cloudy 77 25 72 22 83 83 SSW 5 7 29.99 1016 7 11.26538 0 0
8:55 am 08:55 Partly Cloudy 79 26 73 23 84 84 SSW 5 7 29.99 1016 7 11.26538 0 0
9:15 am 09:15 Mostly Cloudy 79 26 73 23 84 84 SSW 3 6 30 1016 7 11.26538 0 0
9:35 am 09:35 Mostly Cloudy 81 27 73 23 79 79 Calm 30 1016 7 11.26538 0 0
9:55 am 09:55 Mostly Cloudy 81 27 73 23 79 79 SSE 3 6 29.99 1016 7 11.26538 0 0
10:15 am 10:15 Partly Cloudy 81 27 73 23 79 79 W 3 6 29.99 1016 10 16.0934 0 0
10:35 am 10:35 Sunny 82 28 73 23 74 74 SW 5 7 30 1016 10 16.0934 0 0
10:55 am 10:55 Sunny 82 28 73 23 74 74 SSW 7 11 29.99 1016 10 16.0934 0 0
11:15 am 11:15 Partly Cloudy 84 29 73 23 70 70 WSW 3 6 29.99 1016 10 16.0934 0 0
11:35 am 11:35 Partly Cloudy 86 30 75 24 70 70 SW 5 7 30 1016 10 16.0934 0 0
11:55 am 11:55 Mostly Cloudy 86 30 73 23 66 66 Calm 30 1016 10 16.0934 0 0
12:15 pm 12:15 Partly Cloudy 86 30 73 23 66 66 Calm 30 1016 10 16.0934 0 0
12:35 pm 12:35 Sunny 88 31 73 23 62 62 Calm 29.99 1015 10 16.0934 0 0
12:55 pm 12:55 Partly Cloudy 88 31 73 23 62 62 Calm 29.99 1015 10 16.0934 0 0
1:15 pm 13:15 Partly Cloudy 90 32 73 23 59 59 W 6 9 29.98 1015 10 16.0934 0 0
1:35 pm 13:35 Partly Cloudy 91 33 73 23 56 56 W 3 6 29.97 1015 10 16.0934 0 0
1:55 pm 13:55 Partly Cloudy 90 32 72 22 55 55 SE 6 9 29.98 1015 10 16.0934 0 0
2:15 pm 14:15 Mostly Cloudy 90 32 72 22 55 55 E 5 7 29.96 1014 10 16.0934 0 0
2:35 pm 14:35 Cloudy 91 33 72 22 52 52 Calm 29.94 1014 10 16.0934 0 0
2:55 pm 14:55 Mostly Cloudy 93 34 70 21 47 47 W 5 7 29.94 1014 10 16.0934 0 0
3:15 pm 15:15 Partly Cloudy 95 35 70 21 44 44 SSW 3 6 29.93 1014 10 16.0934 0 0
3:35 pm 15:35 Sunny 93 34 70 21 47 47 Calm 29.92 1013 10 16.0934 0 0
3:55 pm 15:55 Sunny 95 35 70 21 44 44 S 5 7 29.92 1013 10 16.0934 0 0
4:15 pm 16:15 Sunny 95 35 70 21 44 44 W 3 6 29.92 1013 10 16.0934 0 0
4:35 pm 16:35 Sunny 91 33 70 21 49 49 Calm 29.9 1013 10 16.0934 0 0
4:55 pm 16:55 Mostly Cloudy 95 35 70 21 44 44 SW 6 9 29.9 1013 10 16.0934 0 0
5:15 pm 17:15 Partly Cloudy 93 34 70 21 47 47 Calm 29.9 1013 10 16.0934 0 0
5:35 pm 17:35 Mostly Cloudy 91 33 70 21 49 49 SSE 16 26 29.91 1013 10 16.0934 0 0
5:55 pm 17:55 Cloudy with Thunderstorms 88 31 70 21 55 55 S 20 31 29.93 1013 10 16.0934 0 0
6:15 pm 18:15 Cloudy with Thunderstorms 75 24 68 20 78 78 ESE 22 35 29.99 1015 5 8.0467 0 0
6:35 pm 18:35 Cloudy with Thunderstorms 73 23 66 19 78 78 ESE 5 7 29.97 1015 5 8.0467 0 0
6:55 pm 18:55 Cloudy 73 23 70 21 89 89 NNW 10 17 29.96 1014 7 11.26538 0 0
7:15 pm 19:15 Mostly Cloudy 77 25 70 21 79 79 W 7 11 29.95 1014 10 16.0934 0 0
7:35 pm 19:35 Partly Cloudy 81 27 68 20 66 66 WSW 7 11 29.94 1014 10 16.0934 0 0
7:55 pm 19:55 Sunny 81 27 68 20 66 66 Calm 29.94 1014 10 16.0934 0 0
8:15 pm 20:15 Sunny 79 26 70 21 74 74 SW 3 6 29.95 1014 10 16.0934 0 0
8:35 pm 20:35 Sunny 79 26 70 21 74 74 Calm 29.96 1015 10 16.0934 0 0
8:55 pm 20:55 Clear 75 24 70 21 83 83 SE 5 7 29.97 1015 10 16.0934 0 0
9:15 pm 21:15 Clear 77 25 72 22 83 83 SSW 3 6 29.97 1015 10 16.0934 0 0
9:35 pm 21:35 Clear 73 23 70 21 89 89 WSW 5 7 29.99 1015 10 16.0934 0 0
9:55 pm 21:55 Clear 73 23 70 21 89 89 WNW 3 6 30 1016 10 16.0934 0 0
10:15 pm 22:15 Clear 73 23 70 21 89 89 Calm 30 1016 10 16.0934 0 0
10:35 pm 22:35 Clear 73 23 68 20 83 83 WSW 5 7 30 1016 10 16.0934 0 0
10:55 pm 22:55 Clear 75 24 70 21 83 83 SSW 5 7 30.01 1016 10 16.0934 0 0
11:15 pm 23:15 Clear 77 25 70 21 79 79 S 3 6 29.99 1016 10 16.0934 0 0
11:35 pm 23:35 Clear 73 23 70 21 89 89 Calm 30.01 1016 10 16.0934 0 0
11:55 pm 23:55 Clear 73 23 70 21 89 89 Calm 30 1016 10 16.0934 0 0

Powered by AerisWeather